Regional Weather Roundup
Issued by NWS

Home | Current Version | Previous Version | Text Only | Print | Product List | Glossary On
Versions: 1 2 3 4 5 6 7 8 9 10 11 12 13 14 15 16 17 18 19 20 21 22 23 24 25 26 27 28 29 30 31 32 33 34 35 36 37 38 39 40 41 42 43 44 45 46 47 48 49 50
000
ASUS45 KTFX 180610
RWRMT
MONTANA REGIONAL WEATHER ROUNDUP
NATIONAL WEATHER SERVICE GREAT FALLS MT
1100 PM MST WED JAN 17 2018

NOTE: "FAIR" INDICATES FEW OR NO CLOUDS BELOW 12000 FEET WITH NO
SIGNIFICANT WEATHER AND/OR OBSTRUCTIONS TO VISIBILITY.

MTZ001>007-043-180700-
WEST OF THE DIVIDE

CITY           SKY/WX    TMP DP  RH WIND       PRES   REMARKS
KALISPELL      CLOUDY    29  28  96 CALM      29.98F FOG
MISSOULA       FAIR      28  24  85 CALM      30.03F
BUTTE          FAIR      17  11  77 VRB3      30.11S
MULLAN PASS    FAIR      34  30  85 S8G20     29.92F WCI  27
ANACONDA         N/A     36  18  48 SE17G24   30.06S WCI  25
DEER LODGE       N/A     39  19  45 SW7G20    30.06S
EUREKA           N/A     28  27  93 MISG      29.93F
HAMILTON         N/A     45  21  39 S17       30.03F
PLAINS           N/A     24  20  85 CALM      29.99
RONAN          FOG       25  25 100 CALM      29.99F VSB 0
THOMPSON FALLS   N/A     32  27  82 E13       30.00F WCI  22
$$

MTZ008-052>055-180700-
SOUTHWEST MONTANA

CITY           SKY/WX    TMP DP  RH WIND       PRES   REMARKS
BOZEMAN        FAIR      19  14  81 SE5       30.12F
DILLON         FAIR      29  21  72 S9        30.14F WCI  20
W YELLOWSTONE  CLOUDY    23  21  93 CALM      30.28F
THREE FORKS      N/A     39  27  62 S13       30.08F WCI  31
TWIN BRIDGES     N/A     29  18  63 CALM      30.11
$$

MTZ009-010-012-014-046-048-049-054-180700-
EAST SLOPES AND CENTRAL MONTANA

CITY           SKY/WX    TMP DP  RH WIND       PRES   REMARKS
CUT BANK       FAIR      41  29  62 S10       29.83F
GREAT FALLS    FAIR      41  24  51 SW17      29.92F
MALMSTROM AFB  MOCLDY    41  28  60 SW20G29   29.90F
HELENA         FAIR      20  17  88 CALM      30.06F
AUGUSTA        FAIR      36  24  60 S25       29.88F WCI  24
BOWMANS CRNR   FAIR      35  22  58 S26       29.92F WCI  23
CHOTEAU          N/A     41  25  52 S22       29.88F
FAIRFIELD      FAIR      39  22  50 S28G35    29.89F WCI  28
POWER          MOCLDY    40  25  56 SW23      29.90R
RAYNESFORD     MOCLDY    51  26  37 SW26G46   29.90F
ULM            FAIR      42  26  53 S16       29.94F
WHITE SULPHUR    N/A     43  19  39 S20       30.04
$$

MTZ011-013-016-021-045-047-050-051-180700-
NORTH CENTRAL MONTANA

CITY           SKY/WX    TMP DP  RH WIND       PRES   REMARKS
HAVRE          FAIR      32  26  78 SW17      29.85F WCI  21
LEWISTOWN      FAIR      42  26  53 SW20      29.94S
CHINOOK          N/A     19  18  93 E3        29.87F
DENTON         MOCLDY    43  24  48 MISG      29.88S
GEYSER         MOCLDY    46  27  47 W24G37    29.88F
GRASS RANGE    FAIR      44  24  45 W22       29.87F
STANFORD       MOCLDY    44  27  52 SW17      29.90F
WINIFRED       FAIR      42  25  51 SW12      29.90S
$$

MTZ017>020-022>027-061-062-180700-
NORTHEAST MONTANA

CITY           SKY/WX    TMP DP  RH WIND       PRES   REMARKS
GLASGOW        FAIR      14  13  95 CALM      29.89F
GLENDIVE       FAIR      21  14  74 SW10      29.94F WCI  10
JORDAN           N/A     37  26  64 W10       29.90F WCI  30
SIDNEY         FAIR      17  13  84 S9        29.94F WCI   6
WOLF POINT     FAIR      10   4  76 CALM      29.92F
PLENTYWOOD       N/A     23  18  80 CALM      29.88S
POPLAR           N/A     16  12  86 W3        29.92F
SCOBEY           N/A     20  12  71 S8        29.85  WCI  10
$$

MTZ028>42-056>058-180700-
SOUTHCENTRAL AND SOUTHEAST MONTANA

CITY           SKY/WX    TMP DP  RH WIND       PRES   REMARKS
BAKER          FAIR      37  23  56 SW15      29.95F WCI  28
BILLINGS       FAIR      41  22  46 W25       29.98F
LIVINGSTON       N/A    N/A N/A N/A MISG      30.01F
MILES CITY     FAIR      25  18  74 CALM      29.97S
BIG TIMBER     CLEAR     43  25  49 W30G39    30.02F
EKALAKA          N/A     42  15  33 S7        29.94
FORSYTH          N/A     34  18  51 SW7       29.96F WCI  28
HARLOWTON      MOCLDY    40  24  54 W20G25    29.98F
$$

REGIONAL REPORTS...DAKOTAS

CITY           SKY/WX    TMP DP  RH WIND       PRES   REMARKS
WILLISTON      FAIR      22  17  81 SW5       29.91F
MINOT          FAIR      32  20  61 SW17      29.84F WCI  21
DICKINSON      FAIR      24  17  74 W7        29.91F WCI  16
BEACH          FAIR      30  19  64 SW15      29.95F WCI  19
CROSBY         FAIR      23  18  80 SW14      29.84F WCI  11
TIOGA          FAIR      21  19  93 SW14      29.88F WCI   8
WATFORD CITY   FAIR      21  16  79 W5        29.91F
BISMARCK       FAIR      31  22  69 CALM      29.96F
GRAND FORKS    FAIR      34  25  69 SW16      29.78F WCI  24
FARGO          FAIR      31  23  72 SW21      29.90F WCI  18
BUFFALO SD       N/A     32  22  66 W9        29.91F WCI  24
RAPID CITY     FAIR      31  19  61 CALM      30.04F
$$

REGIONAL REPORTS...WYOMING/IDAHO/WASHINGTON

CITY           SKY/WX    TMP DP  RH WIND       PRES   REMARKS
GILLETTE         N/A    N/A N/A N/A MISG      30.04S
SHERIDAN       FAIR      32  15  49 S7        30.01F WCI  26
BUFFALO WY     FAIR      41   9  26 SW7       30.05F
CODY           FAIR      44  15  31 SW7       30.12S
YELLOWSTONE LA   N/A     24  21  88 CALM      30.31S
IDAHO FALLS    FAIR      29  27  92 N3        30.31F
SALMON         FAIR      20  18  92 CALM      30.25F
BOISE          FAIR      39  33  79 SE3       30.15F
SPOKANE        CLOUDY    38  35  89 E9        29.84F WCI  31
$$

REGIONAL REPORTS...ALBERTA

CITY           SKY/WX    TMP DP  RH WIND       PRES   REMARKS
CALGARY        MOCLDY    34  21  60 S5        29.60F
CARDSTON         N/A     46  30  53 MISG        N/A
EDMONTON       CLEAR     30  19  64 S7        29.53F WCI  23
FORT MCMURRAY  PTCLDY    21  21 100 E5        29.57F
HIGH LEVEL     CLEAR      9   7  92 S2        29.45
LETHBRIDGE     CLEAR     36  28  75 S14G21    29.73F WCI  27
LLOYDMINSTER   MOCLDY    25  18  74 S10       29.64F WCI  15
MEDICINE HAT   MOCLDY    41  30  65 SW23      29.72F
MILK RIVER       N/A     43  32  65 S8          N/A
PEACE RIVER    CLOUDY    30  21  69 NE8       29.41F WCI  23
PINCHER CREEK  CLEAR     41  32  70 W22G28    29.72F
WATERTON GATE    N/A     46  30  53 SW25G36     N/A
$$

REGIONAL REPORTS...SASKATCHEWAN

CITY           SKY/WX    TMP DP  RH WIND       PRES   REMARKS
CORONACH         N/A     27  19  74 SW6         N/A  WCI  20
CYPRESS HILLS    N/A     37  21  52 W8          N/A  WCI  31
ESTEVAN        PTCLDY    19  14  79 SW9       29.83F WCI   9
MOOSE JAW        N/A     25  18  74 W1          N/A
PRINCE ALBERT  CLEAR      7   3  85 SW2       29.73R
REGINA         PTCLDY    18  14  86 SW3       29.79F
SASKATOON      CLEAR     21  16  79 S7        29.75F WCI  13
SWIFT CURRENT  CLEAR     28  18  64 SW17      29.75F WCI  16
VAL MARIE        N/A     10   7  85 S2          N/A
$$



USA.gov is the U.S. government's official web portal to all federal, state and local government web resources and services.